Home   Weather   Peshawar   Past weeks

Flag for Pakistan Past Weather in Peshawar, Pakistan — Yesterday and Last 2 Weeks

Now
55 °F

Broken clouds.


Feels Like: 55 °F
Forecast: 50 / 53 °F
Wind: 5 mph from Southwest

Location: Peshawar Airport

Current Time: Jan 24, 2017 at 10:23:25 am

Latest Report: Jan 24, 2017 at 10:00 am


Visibility: 2 mi

Pressure: 30.21 "Hg

Humidity: 72%

Dew Point: 46 °F

Location of PeshawarLocation

Past Weather in Peshawar — Graph

°F

Peshawar Temperature Yesterday

Maximum temperature yesterday: 63 °F (at 3:00 pm)
Minimum temperature yesterday: 48 °F (at 6:00 am)
Average temperature yesterday: 55 °F

High & Low Weather Summary for the Past Weeks

 TemperatureHumidityPressure
High68 °F (Jan 22, 3:00 pm)94% (Jan 18, 1:00 pm)30.42 "Hg (Jan 18, 1:00 pm)
Low36 °F (Jan 10, 7:00 am)27% (Jan 10, 2:00 pm)29.98 "Hg (Jan 11, 3:00 pm)
Average51 °F61%30.15 "Hg
* Reported Jan 9 9:30 am — Jan 24 9:00 am, Peshawar, Weather by CustomWeather, © 2017

Note: Actual official high and low records may vary slightly from our data, if they occured in-between our weather recording intervals... More about our weather records

Advertising

Peshawar Weather History for the Previous 24 Hours

Scroll right to see more
 ConditionsComfort  
Time TempWeatherWind HumidityBarometerVisibility
9:00 am
Tue, Jan 24
54 °FFog.No wind82%30.18 "Hg2 mi
8:30 am52 °FFog.No wind82%30.15 "Hg2 mi
8:00 am52 °FFog.No wind82%30.15 "Hg2 mi
7:00 am50 °FFog.5 mph82%30.15 "Hg2 mi
6:00 am52 °FPartly cloudy.5 mph82%30.15 "Hg2 mi
5:00 am52 °FFog.7 mph82%30.15 "Hg2 mi
4:00 am52 °FFog.7 mph82%30.15 "Hg2 mi
3:00 am52 °FFog.5 mph82%30.18 "Hg2 mi
2:00 am52 °FFog.N/A82%30.15 "Hg2 mi
1:00 am52 °FFog.N/A82%30.21 "Hg2 mi
12:00 am52 °FFog.5 mph82%30.21 "Hg2 mi
11:00 pm
Mon, Jan 23
52 °FFog.7 mph82%30.21 "Hg2 mi
10:00 pm54 °FRain. Partly cloudy.9 mph77%30.21 "Hg2 mi
9:30 pm55 °FRain. Partly cloudy.7 mph51%30.21 "Hg2 mi
9:00 pm55 °FRain. Partly cloudy.7 mph51%30.21 "Hg2 mi
8:30 pm57 °FRain. Partly cloudy.No wind48%30.15 "Hg2 mi
8:00 pm57 °FPartly cloudy.No wind48%30.15 "Hg2 mi
7:30 pm57 °FPartly cloudy.7 mph48%30.15 "Hg2 mi
7:00 pm57 °FPartly cloudy.7 mph48%30.15 "Hg2 mi
6:30 pm59 °FPartly cloudy.5 mph45%30.12 "Hg2 mi
6:00 pm59 °FPartly cloudy.5 mph45%30.12 "Hg2 mi
5:30 pm61 °FBroken clouds.7 mph42%N/A2 mi
5:00 pm61 °FBroken clouds.7 mph42%30.15 "Hg2 mi
4:30 pm61 °FBroken clouds.5 mph42%30.15 "Hg2 mi
4:00 pm61 °FBroken clouds.5 mph42%30.15 "Hg2 mi
3:00 pm63 °FBroken clouds.7 mph39%30.12 "Hg1 mi
2:30 pm61 °FPartly sunny.No wind42%30.15 "Hg1 mi
2:00 pm61 °FPartly sunny.No wind42%30.15 "Hg1 mi
1:30 pm61 °FScattered clouds.No wind42%30.15 "Hg1 mi
1:00 pm61 °FScattered clouds.No wind42%30.15 "Hg1 mi
12:30 pm61 °FScattered clouds.No wind42%30.18 "Hg1 mi
12:00 pm61 °FScattered clouds.No wind42%30.18 "Hg1 mi
11:30 am57 °FScattered clouds.No wind48%30.21 "Hg1 mi
11:00 am57 °FScattered clouds.No wind48%30.21 "Hg1 mi
10:30 am54 °FScattered clouds.No wind54%30.21 "Hg1 mi
10:00 am54 °FScattered clouds.No wind54%30.21 "Hg1 mi
Weather by CustomWeather, © 2017

See weather overviewHow to use our weather pages